Regional Weather Roundup
Issued by NWS

Home | Current Version | Previous Version | Text Only | Print | Product List | Glossary Off
Versions: 1 2 3 4 5 6 7 8 9 10 11 12 13 14 15 16 17 18 19 20 21 22 23 24 25 26 27 28 29 30 31 32 33 34 35 36 37 38 39 40 41 42 43 44 45 46 47 48 49 50

000
ASUS43 KLMK 311210
RWRKY
KENTUCKY REGIONAL WEATHER ROUNDUP
NATIONAL WEATHER SERVICE LOUISVILLE KY
800 AM EDT TUE MAY 31 2016

NOTE "FAIR" INDICATES FEW OR NO CLOUDS BELOW 12,000 FEET
WITH NO SIGNIFICANT WEATHER AND/OR OBSTRUCTIONS TO VISIBILITY.

KYZ001>023-026-027-061>063-070>075-311300-
WESTERN AND SOUTH CENTRAL KENTUCKY

CITY           SKY/WX    TMP DP  RH WIND       PRES   REMARKS
PADUCAH        CLOUDY    68  66  93 CALM      29.96R
HENDERSON      PTSUNNY   66  63  88 CALM      29.97S
OWENSBORO      MOSUNNY   71  67  87 E5        29.99R
HOPKINSVILLE   PTSUNNY   71  67  86 CALM      29.98R
BOWLING GREEN  SUNNY     67  63  87 CALM      30.00R
GLASGOW        PTSUNNY   67  65  93 CALM      30.00R
$$

KYZ024-025-028>034-038-045-046-053-311300-
NORTH CENTRAL KENTUCKY

CITY           SKY/WX    TMP DP  RH WIND       PRES   REMARKS
LOUISVILLE/SDF PTSUNNY   72  61  68 CALM      30.00R
LOUISVILLE/LOU MOSUNNY   69  62  78 CALM      30.01R
FORT KNOX      MOSUNNY   67  63  86 CALM      30.00R
$$

KYZ035>037-039>044-047>052-055>060-089>105-311300-
NORTHEAST KENTUCKY

CITY           SKY/WX    TMP DP  RH WIND       PRES   REMARKS
LEXINGTON      PTSUNNY   66  61  84 N3        30.03R
COVINGTON      PTSUNNY   68  61  78 CALM      30.01S
FRANKFORT      PTSUNNY   65  60  84 CALM      30.01R
$$

KYZ054-064>069-076>088-106>120-311300-
SOUTHEAST KENTUCKY

CITY           SKY/WX    TMP DP  RH WIND       PRES   REMARKS
JACKSON        CLOUDY    67  61  81 CALM      30.03R
LONDON         CLOUDY    64  60  87 NE3       30.02R
SOMERSET       PTSUNNY   61  61 100 CALM      30.03S
MIDDLESBORO    FOG       61  61 100 CALM      30.04R VSB 1/2
MONTICELLO     CLOUDY    64  62  93 VRB7      30.03S
$$





USA.gov is the U.S. government's official web portal to all federal, state and local government web resources and services.